Wetterdaten: Montag, 18.04.2016
Datum Zeit Auen-Temp. Temp gefhlt Luftfeuchte Luftdruck Regen Wind Richtung Richtung Sonnenschein Taupunkt Windben
18.04.2016 00:00 4,5 C 4,4 C 87 % 1015,1 hPa 0,0 mm 0,0 km/h (0 Bft) O 90 0 min 2,5 C 0,0 km/h (0 Bft)
18.04.2016 00:05 4,5 C 4,4 C 87 % 1015,1 hPa 0,0 mm 0,0 km/h (0 Bft) O-SO 112 0 min 2,5 C 0,0 km/h (0 Bft)
18.04.2016 00:10 4,5 C 4,4 C 91 % 1015,2 hPa 0,0 mm 0,0 km/h (0 Bft) O-NO 67 0 min 3,2 C 0,0 km/h (0 Bft)
18.04.2016 00:15 4,5 C 4,4 C 91 % 1015,2 hPa 0,0 mm 0,0 km/h (0 Bft) O-NO 67 0 min 3,2 C 0,0 km/h (0 Bft)
18.04.2016 00:20 4,4 C 4,3 C 91 % 1015,2 hPa 0,0 mm 0,0 km/h (0 Bft) O 90 0 min 3,1 C 0,0 km/h (0 Bft)
18.04.2016 00:25 4,4 C 4,3 C 91 % 1015,2 hPa 0,0 mm 0,0 km/h (0 Bft) NW 315 0 min 3,1 C 0,0 km/h (0 Bft)
18.04.2016 00:30 4,4 C 4,2 C 91 % 1015,1 hPa 0,0 mm 0,3 km/h (0 Bft) N-NW 337 0 min 3,1 C 3,3 km/h (1 Bft)
18.04.2016 00:35 4,4 C 4,2 C 91 % 1015,1 hPa 0,0 mm 0,9 km/h (0 Bft) O-NO 67 0 min 3,1 C 3,0 km/h (1 Bft)
18.04.2016 00:40 4,3 C 4,1 C 91 % 1015,1 hPa 0,7 mm 0,9 km/h (0 Bft) SO 135 0 min 3,0 C 0,0 km/h (0 Bft)
18.04.2016 00:45 4,3 C 4,1 C 91 % 1015,1 hPa 0,0 mm 0,3 km/h (0 Bft) NO 45 0 min 3,0 C 0,0 km/h (0 Bft)
18.04.2016 00:50 4,3 C 4,1 C 91 % 1015,0 hPa 0,0 mm 0,0 km/h (0 Bft) NO 45 0 min 3,0 C 0,0 km/h (0 Bft)
18.04.2016 00:55 4,3 C 4,1 C 91 % 1015,0 hPa 0,0 mm 0,0 km/h (0 Bft) S-SO 157 0 min 3,0 C 3,3 km/h (1 Bft)
18.04.2016 01:00 4,3 C 4,1 C 91 % 1015,0 hPa 0,0 mm 0,3 km/h (0 Bft) S 180 0 min 3,0 C 0,0 km/h (0 Bft)
18.04.2016 01:05 4,3 C 4,1 C 91 % 1015,0 hPa 0,0 mm 0,3 km/h (0 Bft) NW 315 0 min 3,0 C 5,1 km/h (1 Bft)
18.04.2016 01:10 4,3 C 4,1 C 91 % 1015,5 hPa 0,0 mm 0,0 km/h (0 Bft) N-NO 22 0 min 3,0 C 0,0 km/h (0 Bft)
18.04.2016 01:15 4,3 C 4,1 C 91 % 1015,5 hPa 0,0 mm 0,0 km/h (0 Bft) O-NO 67 0 min 3,0 C 0,0 km/h (0 Bft)
18.04.2016 01:20 4,3 C 4,1 C 91 % 1015,5 hPa 0,0 mm 0,3 km/h (0 Bft) O 90 0 min 3,0 C 0,0 km/h (0 Bft)
18.04.2016 01:22 4,3 C 4,1 C 91 % 1015,5 hPa 0,0 mm 0,3 km/h (0 Bft) O 90 0 min 3,0 C 0,0 km/h (0 Bft)
18.04.2016 01:25 4,3 C 4,1 C 91 % 1015,5 hPa 0,0 mm 0,3 km/h (0 Bft) N-NO 22 0 min 3,0 C 0,0 km/h (0 Bft)
18.04.2016 01:30 4,3 C 4,1 C 91 % 1015,5 hPa 0,0 mm 0,3 km/h (0 Bft) O-SO 112 0 min 3,0 C 0,0 km/h (0 Bft)
18.04.2016 01:35 4,2 C 4,0 C 91 % 1015,5 hPa 0,7 mm 0,3 km/h (0 Bft) S 180 0 min 2,9 C 0,0 km/h (0 Bft)
18.04.2016 01:40 4,2 C 4,0 C 91 % 1015,5 hPa 0,0 mm 0,0 km/h (0 Bft) O-SO 112 0 min 2,9 C 0,0 km/h (0 Bft)
18.04.2016 01:45 4,2 C 4,0 C 91 % 1015,5 hPa 0,0 mm 0,0 km/h (0 Bft) O 90 0 min 2,9 C 0,0 km/h (0 Bft)
18.04.2016 01:50 4,2 C 4,0 C 91 % 1015,2 hPa 0,0 mm 0,0 km/h (0 Bft) S-SO 157 0 min 2,9 C 0,0 km/h (0 Bft)
18.04.2016 01:55 4,2 C 4,0 C 91 % 1015,2 hPa 0,0 mm 0,0 km/h (0 Bft) O-SO 112 0 min 2,9 C 0,0 km/h (0 Bft)
18.04.2016 02:00 4,1 C 3,9 C 91 % 1015,2 hPa 0,0 mm 0,0 km/h (0 Bft) W 270 0 min 2,8 C 0,0 km/h (0 Bft)
18.04.2016 02:05 4,1 C 3,9 C 91 % 1015,2 hPa 0,0 mm 0,0 km/h (0 Bft) SO 135 0 min 2,8 C 0,0 km/h (0 Bft)
18.04.2016 02:10 4,1 C 3,9 C 91 % 1015,2 hPa 0,0 mm 0,0 km/h (0 Bft) W 270 0 min 2,8 C 0,0 km/h (0 Bft)
18.04.2016 02:15 4,1 C 3,9 C 91 % 1015,2 hPa 0,7 mm 0,9 km/h (0 Bft) W 270 0 min 2,8 C 5,4 km/h (1 Bft)
18.04.2016 02:20 4,1 C 3,9 C 91 % 1015,2 hPa 0,0 mm 1,2 km/h (1 Bft) NW 315 0 min 2,8 C 0,0 km/h (0 Bft)
18.04.2016 02:25 4,1 C 3,9 C 91 % 1015,2 hPa 0,0 mm 0,6 km/h (0 Bft) W-SW 247 0 min 2,8 C 0,0 km/h (0 Bft)
18.04.2016 02:30 4,0 C 3,8 C 91 % 1015,3 hPa 0,0 mm 0,0 km/h (0 Bft) S-SW 202 0 min 2,7 C 0,0 km/h (0 Bft)
18.04.2016 02:35 4,0 C 3,8 C 91 % 1015,3 hPa 0,0 mm 0,9 km/h (0 Bft) NW 315 0 min 2,7 C 3,6 km/h (1 Bft)
18.04.2016 02:40 4,0 C 3,8 C 91 % 1015,3 hPa 0,0 mm 0,9 km/h (0 Bft) NW 315 0 min 2,7 C 0,0 km/h (0 Bft)
18.04.2016 02:45 4,0 C 3,8 C 91 % 1015,3 hPa 0,0 mm 0,3 km/h (0 Bft) NW 315 0 min 2,7 C 0,0 km/h (0 Bft)
18.04.2016 02:50 4,0 C 3,8 C 91 % 1015,1 hPa 0,0 mm 0,0 km/h (0 Bft) W-NW 292 0 min 2,7 C 0,0 km/h (0 Bft)
18.04.2016 02:55 3,9 C 3,8 C 87 % 1015,1 hPa 0,0 mm 0,0 km/h (0 Bft) W-SW 247 0 min 1,9 C 0,0 km/h (0 Bft)
18.04.2016 03:00 3,9 C 3,7 C 91 % 1015,1 hPa 0,0 mm 0,0 km/h (0 Bft) O-SO 112 0 min 2,6 C 0,0 km/h (0 Bft)
18.04.2016 03:05 3,9 C 3,8 C 87 % 1015,1 hPa 0,0 mm 0,0 km/h (0 Bft) NW 315 0 min 1,9 C 0,0 km/h (0 Bft)
18.04.2016 03:10 3,9 C 3,8 C 87 % 1015,1 hPa 0,7 mm 0,0 km/h (0 Bft) N-NW 337 0 min 1,9 C 0,0 km/h (0 Bft)
18.04.2016 03:15 3,9 C 3,8 C 87 % 1015,1 hPa 0,0 mm 0,0 km/h (0 Bft) O-NO 67 0 min 1,9 C 0,0 km/h (0 Bft)
18.04.2016 03:20 3,9 C 3,8 C 87 % 1015,1 hPa 0,0 mm 0,0 km/h (0 Bft) W 270 0 min 1,9 C 0,0 km/h (0 Bft)
18.04.2016 03:25 3,9 C 3,8 C 87 % 1015,1 hPa 0,0 mm 0,0 km/h (0 Bft) N-NW 337 0 min 1,9 C 0,0 km/h (0 Bft)
18.04.2016 03:30 3,9 C 3,8 C 87 % 1015,1 hPa 0,0 mm 0,0 km/h (0 Bft) N-NO 22 0 min 1,9 C 0,0 km/h (0 Bft)
18.04.2016 03:35 3,9 C 3,8 C 88 % 1015,1 hPa 0,0 mm 0,0 km/h (0 Bft) S-SW 202 0 min 2,1 C 0,0 km/h (0 Bft)
18.04.2016 03:40 3,9 C 3,8 C 88 % 1015,1 hPa 0,0 mm 0,0 km/h (0 Bft) SW 225 0 min 2,1 C 0,0 km/h (0 Bft)
18.04.2016 03:45 3,9 C 3,8 C 88 % 1015,1 hPa 0,0 mm 0,0 km/h (0 Bft) S-SO 157 0 min 2,1 C 0,0 km/h (0 Bft)
18.04.2016 03:50 3,9 C 3,8 C 88 % 1014,8 hPa 0,0 mm 0,0 km/h (0 Bft) O-SO 112 0 min 2,1 C 0,0 km/h (0 Bft)
18.04.2016 03:55 3,9 C 3,7 C 91 % 1014,8 hPa 0,0 mm 0,0 km/h (0 Bft) N-NO 22 0 min 2,6 C 0,0 km/h (0 Bft)
18.04.2016 04:00 3,9 C 3,7 C 91 % 1014,8 hPa 0,0 mm 0,0 km/h (0 Bft) W-NW 292 0 min 2,6 C 0,0 km/h (0 Bft)
18.04.2016 04:05 3,9 C 3,7 C 91 % 1014,8 hPa 0,0 mm 0,6 km/h (0 Bft) W-NW 292 0 min 2,6 C 3,3 km/h (1 Bft)
18.04.2016 04:10 3,9 C 3,7 C 91 % 1015,1 hPa 0,0 mm 1,2 km/h (1 Bft) NW 315 0 min 2,6 C 0,0 km/h (0 Bft)
18.04.2016 04:15 3,9 C 3,7 C 91 % 1015,1 hPa 0,0 mm 0,6 km/h (0 Bft) W 270 0 min 2,6 C 0,0 km/h (0 Bft)
18.04.2016 04:20 3,9 C 3,7 C 91 % 1015,1 hPa 0,0 mm 0,0 km/h (0 Bft) W 270 0 min 2,6 C 0,0 km/h (0 Bft)
18.04.2016 04:23 3,9 C 3,7 C 91 % 1015,1 hPa 0,0 mm 0,0 km/h (0 Bft) W 270 0 min 2,6 C 0,0 km/h (0 Bft)
18.04.2016 04:25 3,9 C 3,7 C 91 % 1015,1 hPa 0,0 mm 0,3 km/h (0 Bft) W 270 0 min 2,6 C 8,0 km/h (2 Bft)
18.04.2016 04:30 3,9 C 3,7 C 91 % 1015,4 hPa 0,0 mm 1,5 km/h (1 Bft) NW 315 0 min 2,6 C 3,3 km/h (1 Bft)
18.04.2016 04:35 3,9 C 3,8 C 88 % 1015,4 hPa 0,0 mm 1,5 km/h (1 Bft) W-NW 292 0 min 2,1 C 3,6 km/h (1 Bft)
18.04.2016 04:40 3,9 C 3,8 C 88 % 1015,4 hPa 0,0 mm 1,2 km/h (1 Bft) W-NW 292 0 min 2,1 C 3,0 km/h (1 Bft)
18.04.2016 04:45 3,9 C 3,8 C 91 % 1015,4 hPa 0,0 mm 1,5 km/h (1 Bft) NW 315 0 min 2,6 C 0,0 km/h (0 Bft)
18.04.2016 04:50 3,9 C 3,8 C 91 % 1015,1 hPa 0,0 mm 0,6 km/h (0 Bft) SW 225 0 min 2,6 C 3,6 km/h (1 Bft)
18.04.2016 04:55 3,9 C 3,9 C 88 % 1015,1 hPa 0,0 mm 0,6 km/h (0 Bft) W-SW 247 0 min 2,1 C 3,3 km/h (1 Bft)
18.04.2016 05:00 4,1 C 3,9 C 91 % 1015,1 hPa 0,0 mm 1,2 km/h (1 Bft) W 270 0 min 2,8 C 0,0 km/h (0 Bft)
18.04.2016 05:05 4,1 C 4,0 C 91 % 1015,1 hPa 0,0 mm 1,8 km/h (1 Bft) W 270 0 min 2,8 C 4,2 km/h (1 Bft)
18.04.2016 05:10 4,1 C 4,0 C 91 % 1015,3 hPa 0,0 mm 2,4 km/h (1 Bft) W 270 0 min 2,8 C 6,3 km/h (2 Bft)
18.04.2016 05:15 4,1 C 4,1 C 88 % 1015,3 hPa 0,0 mm 2,1 km/h (1 Bft) SW 225 0 min 2,3 C 0,0 km/h (0 Bft)
18.04.2016 05:20 4,2 C 4,1 C 91 % 1015,3 hPa 0,0 mm 1,8 km/h (1 Bft) W 270 0 min 2,9 C 0,0 km/h (0 Bft)
18.04.2016 05:25 4,2 C 4,1 C 91 % 1015,3 hPa 0,0 mm 1,2 km/h (1 Bft) NW 315 0 min 2,9 C 0,0 km/h (0 Bft)
18.04.2016 05:30 4,2 C 4,1 C 91 % 1015,3 hPa 0,0 mm 1,2 km/h (1 Bft) W-SW 247 0 min 2,9 C 0,0 km/h (0 Bft)
18.04.2016 05:35 4,2 C 4,1 C 91 % 1015,3 hPa 0,0 mm 0,3 km/h (0 Bft) W-SW 247 0 min 2,9 C 0,0 km/h (0 Bft)
18.04.2016 05:40 4,2 C 4,1 C 91 % 1015,3 hPa 0,0 mm 0,3 km/h (0 Bft) S 180 0 min 2,9 C 3,0 km/h (1 Bft)
18.04.2016 05:45 4,2 C 4,1 C 91 % 1015,3 hPa 0,0 mm 0,3 km/h (0 Bft) W-SW 247 0 min 2,9 C 0,0 km/h (0 Bft)
18.04.2016 05:50 4,2 C 4,1 C 91 % 1015,4 hPa 0,0 mm 0,3 km/h (0 Bft) W-SW 247 0 min 2,9 C 0,0 km/h (0 Bft)
18.04.2016 05:55 4,2 C 4,1 C 91 % 1015,4 hPa 0,7 mm 0,0 km/h (0 Bft) W-SW 247 0 min 2,9 C 0,0 km/h (0 Bft)
18.04.2016 06:00 4,2 C 4,1 C 91 % 1015,4 hPa 0,0 mm 0,0 km/h (0 Bft) W 270 0 min 2,9 C 0,0 km/h (0 Bft)
18.04.2016 06:05 4,2 C 4,1 C 91 % 1015,4 hPa 0,0 mm 0,0 km/h (0 Bft) W 270 0 min 2,9 C 0,0 km/h (0 Bft)
18.04.2016 06:10 4,2 C 4,1 C 91 % 1015,6 hPa 0,0 mm 0,0 km/h (0 Bft) W 270 0 min 2,9 C 0,0 km/h (0 Bft)
18.04.2016 06:15 4,2 C 4,1 C 91 % 1015,6 hPa 0,0 mm 0,0 km/h (0 Bft) NW 315 0 min 2,9 C 0,0 km/h (0 Bft)
18.04.2016 06:20 4,2 C 4,1 C 91 % 1015,6 hPa 0,0 mm 0,0 km/h (0 Bft) W-NW 292 0 min 2,9 C 0,0 km/h (0 Bft)
18.04.2016 06:25 4,2 C 4,1 C 91 % 1015,6 hPa 0,0 mm 0,0 km/h (0 Bft) W-SW 247 0 min 2,9 C 0,0 km/h (0 Bft)
18.04.2016 06:30 4,2 C 4,1 C 91 % 1015,9 hPa 0,0 mm 0,0 km/h (0 Bft) S-SW 202 0 min 2,9 C 0,0 km/h (0 Bft)
18.04.2016 06:35 4,2 C 4,1 C 91 % 1015,9 hPa 0,0 mm 0,0 km/h (0 Bft) S 180 0 min 2,9 C 0,0 km/h (0 Bft)
18.04.2016 06:40 4,2 C 4,1 C 88 % 1015,9 hPa 0,0 mm 0,0 km/h (0 Bft) S 180 0 min 2,4 C 0,0 km/h (0 Bft)
18.04.2016 06:45 4,3 C 4,2 C 91 % 1015,9 hPa 0,0 mm 0,0 km/h (0 Bft) O-NO 67 0 min 3,0 C 0,0 km/h (0 Bft)
18.04.2016 06:50 4,3 C 4,2 C 91 % 1016,1 hPa 0,0 mm 0,0 km/h (0 Bft) O 90 0 min 3,0 C 0,0 km/h (0 Bft)
18.04.2016 06:55 4,3 C 4,2 C 92 % 1016,1 hPa 0,0 mm 0,0 km/h (0 Bft) O-SO 112 0 min 3,1 C 0,0 km/h (0 Bft)
18.04.2016 07:00 4,3 C 4,2 C 92 % 1016,1 hPa 0,0 mm 0,0 km/h (0 Bft) S 180 0 min 3,1 C 0,0 km/h (0 Bft)
18.04.2016 07:05 4,3 C 4,3 C 88 % 1016,1 hPa 0,0 mm 0,0 km/h (0 Bft) W 270 0 min 2,5 C 0,0 km/h (0 Bft)
18.04.2016 07:10 4,3 C 4,3 C 88 % 1016,2 hPa 0,0 mm 0,0 km/h (0 Bft) O 90 0 min 2,5 C 0,0 km/h (0 Bft)
18.04.2016 07:15 4,4 C 4,4 C 88 % 1016,2 hPa 0,0 mm 0,0 km/h (0 Bft) NO 45 0 min 2,6 C 0,0 km/h (0 Bft)
18.04.2016 07:20 4,4 C 4,4 C 88 % 1016,2 hPa 0,0 mm 0,3 km/h (0 Bft) NO 45 0 min 2,6 C 0,0 km/h (0 Bft)
18.04.2016 07:23 4,4 C 4,4 C 88 % 1016,2 hPa 0,0 mm 0,6 km/h (0 Bft) N-NO 22 0 min 2,6 C 0,0 km/h (0 Bft)
18.04.2016 07:24 4,4 C 4,4 C 88 % 1016,2 hPa 0,0 mm 0,6 km/h (0 Bft) N-NO 22 0 min 2,6 C 0,0 km/h (0 Bft)
18.04.2016 07:25 4,4 C 4,4 C 88 % 1016,2 hPa 0,0 mm 0,6 km/h (0 Bft) N-NO 22 0 min 2,6 C 0,0 km/h (0 Bft)
18.04.2016 07:30 4,4 C 4,4 C 88 % 1016,3 hPa 0,0 mm 0,3 km/h (0 Bft) N-NW 337 0 min 2,6 C 0,0 km/h (0 Bft)
18.04.2016 07:35 4,5 C 4,5 C 88 % 1016,3 hPa 0,0 mm 0,9 km/h (0 Bft) NW 315 0 min 2,7 C 0,0 km/h (0 Bft)
18.04.2016 07:40 4,5 C 4,5 C 88 % 1016,3 hPa 0,0 mm 1,5 km/h (1 Bft) NO 45 0 min 2,7 C 5,1 km/h (1 Bft)
18.04.2016 07:45 4,5 C 4,5 C 88 % 1016,3 hPa 0,0 mm 2,1 km/h (1 Bft) N-NO 22 0 min 2,7 C 5,1 km/h (1 Bft)
18.04.2016 07:50 4,5 C 4,5 C 88 % 1016,6 hPa 0,0 mm 2,1 km/h (1 Bft) NO 45 0 min 2,7 C 6,0 km/h (2 Bft)
18.04.2016 07:55 4,5 C 4,6 C 88 % 1016,6 hPa 0,0 mm 2,4 km/h (1 Bft) O 90 0 min 2,7 C 3,9 km/h (1 Bft)
18.04.2016 08:00 4,5 C 4,6 C 88 % 1016,6 hPa 0,0 mm 2,4 km/h (1 Bft) O-NO 67 0 min 2,7 C 0,0 km/h (0 Bft)
18.04.2016 08:05 4,6 C 4,6 C 88 % 1016,6 hPa 0,0 mm 2,7 km/h (1 Bft) SW 225 0 min 2,8 C 3,6 km/h (1 Bft)
18.04.2016 08:10 4,6 C 4,7 C 88 % 1016,5 hPa 0,0 mm 2,4 km/h (1 Bft) O-NO 67 0 min 2,8 C 4,8 km/h (1 Bft)
18.04.2016 08:15 4,6 C 4,7 C 88 % 1016,5 hPa 0,0 mm 1,2 km/h (1 Bft) O-NO 67 0 min 2,8 C 0,0 km/h (0 Bft)
18.04.2016 08:20 4,6 C 4,7 C 88 % 1016,5 hPa 0,0 mm 1,2 km/h (1 Bft) NO 45 0 min 2,8 C 3,9 km/h (1 Bft)
18.04.2016 08:25 4,7 C 4,8 C 88 % 1016,5 hPa 0,0 mm 2,7 km/h (1 Bft) NO 45 0 min 2,9 C 6,9 km/h (2 Bft)
18.04.2016 08:30 4,7 C 4,8 C 88 % 1016,4 hPa 0,0 mm 3,6 km/h (1 Bft) O-NO 67 0 min 2,9 C 4,8 km/h (1 Bft)
18.04.2016 08:35 4,7 C 4,9 C 88 % 1016,4 hPa 0,0 mm 4,2 km/h (1 Bft) O 90 0 min 2,9 C 3,9 km/h (1 Bft)
18.04.2016 08:40 4,8 C 5,2 C 88 % 1016,4 hPa 0,0 mm 4,8 km/h (1 Bft) NO 45 0 min 3,0 C 8,3 km/h (2 Bft)
18.04.2016 08:45 4,9 C 5,4 C 88 % 1016,4 hPa 0,0 mm 5,4 km/h (1 Bft) NO 45 0 min 3,1 C 10,7 km/h (2 Bft)
18.04.2016 08:50 5,0 C 5,4 C 88 % 1016,4 hPa 0,0 mm 6,6 km/h (2 Bft) O-NO 67 0 min 3,2 C 12,2 km/h (2 Bft)
18.04.2016 08:55 5,0 C 5,3 C 88 % 1016,4 hPa 0,0 mm 7,2 km/h (2 Bft) NO 45 0 min 3,2 C 6,6 km/h (2 Bft)
18.04.2016 09:00 5,0 C 5,3 C 88 % 1016,4 hPa 0,0 mm 7,7 km/h (2 Bft) O-NO 67 0 min 3,2 C 8,3 km/h (2 Bft)
18.04.2016 09:05 5,0 C 5,4 C 88 % 1016,4 hPa 0,0 mm 6,3 km/h (2 Bft) NO 45 0 min 3,2 C 4,8 km/h (1 Bft)
18.04.2016 09:10 5,0 C 5,3 C 88 % 1016,4 hPa 0,0 mm 6,3 km/h (2 Bft) O-NO 67 0 min 3,2 C 6,3 km/h (2 Bft)
18.04.2016 09:15 5,2 C 5,6 C 88 % 1016,4 hPa 0,0 mm 4,2 km/h (1 Bft) N-NO 22 0 min 3,4 C 3,3 km/h (1 Bft)
18.04.2016 09:20 5,2 C 5,6 C 88 % 1016,4 hPa 0,0 mm 3,6 km/h (1 Bft) O-NO 67 0 min 3,4 C 3,9 km/h (1 Bft)
18.04.2016 09:25 5,2 C 5,8 C 88 % 1016,4 hPa 0,0 mm 4,2 km/h (1 Bft) SO 135 0 min 3,4 C 12,5 km/h (3 Bft)
18.04.2016 09:30 5,4 C 5,8 C 88 % 1016,3 hPa 0,0 mm 3,9 km/h (1 Bft) S-SO 157 0 min 3,6 C 3,3 km/h (1 Bft)
18.04.2016 09:35 5,4 C 5,7 C 88 % 1016,3 hPa 0,0 mm 4,2 km/h (1 Bft) O-NO 67 0 min 3,6 C 5,7 km/h (1 Bft)
18.04.2016 09:40 5,2 C 5,5 C 88 % 1016,3 hPa 0,0 mm 6,3 km/h (2 Bft) O-NO 67 0 min 3,4 C 6,9 km/h (2 Bft)
18.04.2016 09:45 5,4 C 5,7 C 88 % 1016,3 hPa 0,0 mm 7,2 km/h (2 Bft) NO 45 0 min 3,6 C 13,7 km/h (3 Bft)
18.04.2016 09:50 5,4 C 5,8 C 88 % 1016,1 hPa 0,0 mm 6,0 km/h (2 Bft) O 90 0 min 3,6 C 0,0 km/h (0 Bft)
18.04.2016 09:55 5,4 C 5,7 C 88 % 1016,1 hPa 0,0 mm 7,2 km/h (2 Bft) NO 45 0 min 3,6 C 14,0 km/h (3 Bft)
18.04.2016 10:00 5,4 C 5,7 C 88 % 1016,1 hPa 0,0 mm 7,2 km/h (2 Bft) NO 45 0 min 3,6 C 11,9 km/h (2 Bft)
18.04.2016 10:05 5,5 C 5,7 C 88 % 1016,1 hPa 0,0 mm 8,0 km/h (2 Bft) O-SO 112 0 min 3,7 C 7,2 km/h (2 Bft)
18.04.2016 10:10 5,5 C 5,7 C 88 % 1016,5 hPa 0,0 mm 8,0 km/h (2 Bft) O-NO 67 0 min 3,7 C 10,4 km/h (2 Bft)
18.04.2016 10:15 5,5 C 5,7 C 87 % 1016,5 hPa 0,0 mm 7,2 km/h (2 Bft) O-NO 67 0 min 3,5 C 6,0 km/h (2 Bft)
18.04.2016 10:20 5,6 C 6,1 C 88 % 1016,5 hPa 0,0 mm 6,0 km/h (2 Bft) O-NO 67 0 min 3,8 C 8,3 km/h (2 Bft)
18.04.2016 10:23 5,8 C 6,3 C 87 % 1016,5 hPa 0,0 mm 4,2 km/h (1 Bft) NO 45 0 min 3,8 C 5,7 km/h (1 Bft)
18.04.2016 10:25 5,8 C 6,3 C 87 % 1016,5 hPa 0,0 mm 4,2 km/h (1 Bft) NO 45 0 min 3,8 C 5,7 km/h (1 Bft)
18.04.2016 10:30 5,8 C 6,6 C 87 % 1016,8 hPa 0,0 mm 4,2 km/h (1 Bft) NO 45 0 min 3,8 C 3,6 km/h (1 Bft)
18.04.2016 10:35 5,9 C 6,8 C 87 % 1016,8 hPa 0,0 mm 6,0 km/h (2 Bft) NO 45 0 min 3,9 C 6,3 km/h (2 Bft)
18.04.2016 10:40 5,9 C 6,8 C 87 % 1016,8 hPa 0,0 mm 6,6 km/h (2 Bft) O-NO 67 0 min 3,9 C 8,6 km/h (2 Bft)
18.04.2016 10:45 5,9 C 6,9 C 87 % 1016,8 hPa 0,0 mm 6,0 km/h (2 Bft) O-NO 67 0 min 3,9 C 8,3 km/h (2 Bft)
18.04.2016 10:50 5,9 C 7,2 C 87 % 1016,7 hPa 0,0 mm 4,8 km/h (1 Bft) O-SO 112 0 min 3,9 C 7,2 km/h (2 Bft)
18.04.2016 10:55 5,9 C 7,4 C 87 % 1016,7 hPa 0,0 mm 3,9 km/h (1 Bft) NO 45 0 min 3,9 C 8,0 km/h (2 Bft)
18.04.2016 11:00 5,9 C 7,5 C 87 % 1016,7 hPa 0,0 mm 3,9 km/h (1 Bft) NO 45 0 min 3,9 C 0,0 km/h (0 Bft)
18.04.2016 11:05 5,9 C 7,6 C 87 % 1016,7 hPa 0,0 mm 4,2 km/h (1 Bft) NW 315 0 min 3,9 C 6,3 km/h (2 Bft)
18.04.2016 11:10 5,9 C 7,2 C 87 % 1016,8 hPa 0,0 mm 5,1 km/h (1 Bft) NO 45 0 min 3,9 C 0,0 km/h (0 Bft)
18.04.2016 11:15 5,9 C 6,5 C 87 % 1016,8 hPa 0,0 mm 8,0 km/h (2 Bft) NO 45 0 min 3,9 C 18,5 km/h (3 Bft)
18.04.2016 11:20 5,9 C 6,5 C 87 % 1016,8 hPa 0,0 mm 8,6 km/h (2 Bft) O-NO 67 0 min 3,9 C 11,3 km/h (2 Bft)
18.04.2016 11:25 5,9 C 6,7 C 87 % 1016,8 hPa 0,0 mm 8,9 km/h (2 Bft) O-NO 67 0 min 3,9 C 10,7 km/h (2 Bft)
18.04.2016 11:30 5,9 C 6,7 C 87 % 1016,7 hPa 0,0 mm 9,5 km/h (2 Bft) NO 45 0 min 3,9 C 11,9 km/h (2 Bft)
18.04.2016 11:35 5,9 C 6,4 C 87 % 1016,7 hPa 0,0 mm 10,7 km/h (2 Bft) O-NO 67 0 min 3,9 C 9,2 km/h (2 Bft)
18.04.2016 11:40 5,9 C 6,2 C 87 % 1016,7 hPa 0,0 mm 10,7 km/h (2 Bft) N-NO 22 0 min 3,9 C 10,7 km/h (2 Bft)
18.04.2016 11:45 5,9 C 6,2 C 87 % 1016,7 hPa 0,0 mm 10,1 km/h (2 Bft) N-NO 22 0 min 3,9 C 12,5 km/h (3 Bft)
18.04.2016 11:50 5,9 C 6,3 C 87 % 1016,8 hPa 0,0 mm 8,9 km/h (2 Bft) NO 45 0 min 3,9 C 9,5 km/h (2 Bft)
18.04.2016 11:55 5,9 C 6,4 C 87 % 1016,8 hPa 0,0 mm 8,0 km/h (2 Bft) O-NO 67 0 min 3,9 C 6,9 km/h (2 Bft)
18.04.2016 12:00 5,9 C 6,4 C 87 % 1016,8 hPa 0,0 mm 7,7 km/h (2 Bft) NO 45 0 min 3,9 C 7,7 km/h (2 Bft)
18.04.2016 12:05 6,0 C 6,6 C 85 % 1016,8 hPa 0,0 mm 7,2 km/h (2 Bft) N-NO 22 0 min 3,7 C 12,8 km/h (3 Bft)
18.04.2016 12:10 6,0 C 6,0 C 85 % 1016,8 hPa 0,0 mm 10,1 km/h (2 Bft) NO 45 0 min 3,7 C 14,3 km/h (3 Bft)
18.04.2016 12:15 5,9 C 5,9 C 86 % 1016,8 hPa 0,0 mm 11,3 km/h (2 Bft) O-NO 67 0 min 3,7 C 8,3 km/h (2 Bft)
18.04.2016 12:20 5,9 C 5,8 C 86 % 1016,8 hPa 0,0 mm 10,4 km/h (2 Bft) NO 45 0 min 3,7 C 11,3 km/h (2 Bft)
18.04.2016 12:25 5,8 C 5,7 C 86 % 1016,8 hPa 0,0 mm 9,8 km/h (2 Bft) O-NO 67 0 min 3,6 C 12,5 km/h (3 Bft)
18.04.2016 12:30 5,8 C 5,8 C 86 % 1017,1 hPa 0,0 mm 8,6 km/h (2 Bft) N 360 0 min 3,6 C 18,2 km/h (3 Bft)
18.04.2016 12:35 5,9 C 6,2 C 86 % 1017,1 hPa 0,0 mm 6,6 km/h (2 Bft) NO 45 0 min 3,7 C 8,9 km/h (2 Bft)
18.04.2016 12:40 5,9 C 6,0 C 86 % 1017,1 hPa 0,0 mm 7,5 km/h (2 Bft) O-NO 67 0 min 3,7 C 8,6 km/h (2 Bft)
18.04.2016 12:45 5,9 C 5,9 C 86 % 1017,1 hPa 0,0 mm 9,8 km/h (2 Bft) NO 45 0 min 3,7 C 19,1 km/h (3 Bft)
18.04.2016 12:50 5,9 C 5,8 C 86 % 1016,8 hPa 0,0 mm 10,4 km/h (2 Bft) N-NO 22 0 min 3,7 C 16,7 km/h (3 Bft)
18.04.2016 12:55 5,9 C 5,7 C 86 % 1016,8 hPa 0,0 mm 10,4 km/h (2 Bft) O-NO 67 0 min 3,7 C 8,9 km/h (2 Bft)
18.04.2016 13:00 5,9 C 5,9 C 86 % 1016,8 hPa 0,0 mm 9,2 km/h (2 Bft) O-NO 67 0 min 3,7 C 9,8 km/h (2 Bft)
18.04.2016 13:05 5,9 C 5,9 C 86 % 1016,8 hPa 0,0 mm 8,3 km/h (2 Bft) N-NO 22 0 min 3,7 C 15,5 km/h (3 Bft)
18.04.2016 13:10 5,9 C 5,9 C 86 % 1016,9 hPa 0,0 mm 9,5 km/h (2 Bft) NO 45 0 min 3,7 C 10,7 km/h (2 Bft)
18.04.2016 13:15 5,8 C 5,9 C 86 % 1016,9 hPa 0,0 mm 8,3 km/h (2 Bft) N 360 0 min 3,6 C 0,0 km/h (0 Bft)
18.04.2016 13:20 5,9 C 5,8 C 86 % 1016,9 hPa 0,0 mm 8,3 km/h (2 Bft) NO 45 0 min 3,7 C 11,0 km/h (2 Bft)
18.04.2016 13:23 5,9 C 5,9 C 86 % 1016,9 hPa 0,0 mm 7,7 km/h (2 Bft) NO 45 0 min 3,7 C 13,4 km/h (3 Bft)
18.04.2016 13:26 5,9 C 5,9 C 86 % 1016,9 hPa 0,0 mm 7,7 km/h (2 Bft) NO 45 0 min 3,7 C 13,4 km/h (3 Bft)
18.04.2016 13:30 5,9 C 5,9 C 86 % 1016,8 hPa 0,0 mm 8,3 km/h (2 Bft) NO 45 0 min 3,7 C 14,0 km/h (3 Bft)
18.04.2016 13:35 5,9 C 6,0 C 86 % 1016,8 hPa 0,0 mm 8,6 km/h (2 Bft) N-NO 22 0 min 3,7 C 10,1 km/h (2 Bft)
18.04.2016 13:40 5,9 C 6,3 C 86 % 1016,8 hPa 0,0 mm 7,7 km/h (2 Bft) N-NO 22 0 min 3,7 C 9,2 km/h (2 Bft)
18.04.2016 13:45 5,9 C 6,2 C 86 % 1016,8 hPa 0,0 mm 7,5 km/h (2 Bft) N-NO 22 0 min 3,7 C 17,0 km/h (3 Bft)
18.04.2016 13:50 5,9 C 6,2 C 87 % 1016,7 hPa 0,0 mm 7,5 km/h (2 Bft) NO 45 0 min 3,9 C 7,5 km/h (2 Bft)
18.04.2016 13:55 6,0 C 6,5 C 86 % 1016,7 hPa 0,0 mm 7,5 km/h (2 Bft) O-NO 67 0 min 3,8 C 15,8 km/h (3 Bft)
18.04.2016 14:00 6,2 C 6,7 C 86 % 1016,7 hPa 0,0 mm 6,9 km/h (2 Bft) O-NO 67 0 min 4,0 C 4,5 km/h (1 Bft)
18.04.2016 14:05 6,3 C 6,5 C 86 % 1016,7 hPa 0,0 mm 8,6 km/h (2 Bft) N-NO 22 0 min 4,1 C 20,0 km/h (4 Bft)
18.04.2016 14:10 6,3 C 6,5 C 86 % 1016,8 hPa 0,0 mm 9,8 km/h (2 Bft) N-NO 22 0 min 4,1 C 9,8 km/h (2 Bft)
18.04.2016 14:15 6,2 C 6,1 C 86 % 1016,8 hPa 0,0 mm 12,2 km/h (2 Bft) O-SO 112 0 min 4,0 C 28,9 km/h (5 Bft)
18.04.2016 14:20 6,2 C 6,2 C 86 % 1016,8 hPa 0,0 mm 10,4 km/h (2 Bft) O-NO 67 0 min 4,0 C 19,4 km/h (3 Bft)
18.04.2016 14:25 6,2 C 6,3 C 86 % 1016,8 hPa 0,0 mm 8,3 km/h (2 Bft) O-SO 112 0 min 4,0 C 9,2 km/h (2 Bft)
18.04.2016 14:30 6,2 C 6,3 C 86 % 1016,8 hPa 0,0 mm 8,3 km/h (2 Bft) O-NO 67 0 min 4,0 C 11,9 km/h (2 Bft)
18.04.2016 14:35 6,2 C 6,0 C 86 % 1016,8 hPa 0,0 mm 8,9 km/h (2 Bft) N-NW 337 0 min 4,0 C 8,6 km/h (2 Bft)
18.04.2016 14:40 6,2 C 6,1 C 86 % 1016,8 hPa 0,0 mm 8,9 km/h (2 Bft) NO 45 0 min 4,0 C 10,7 km/h (2 Bft)
18.04.2016 14:45 6,2 C 6,2 C 86 % 1016,8 hPa 0,0 mm 7,5 km/h (2 Bft) NO 45 0 min 4,0 C 8,0 km/h (2 Bft)
18.04.2016 14:50 6,0 C 6,2 C 86 % 1016,8 hPa 0,0 mm 6,6 km/h (2 Bft) N-NO 22 0 min 3,8 C 6,0 km/h (2 Bft)
18.04.2016 14:55 6,0 C 6,5 C 86 % 1016,8 hPa 0,0 mm 6,0 km/h (2 Bft) O-NO 67 0 min 3,8 C 7,7 km/h (2 Bft)
18.04.2016 15:00 6,0 C 6,5 C 86 % 1016,8 hPa 0,0 mm 5,7 km/h (1 Bft) N-NO 22 0 min 3,8 C 8,3 km/h (2 Bft)
18.04.2016 15:05 6,0 C 6,3 C 86 % 1016,8 hPa 0,0 mm 8,0 km/h (2 Bft) NO 45 0 min 3,8 C 7,7 km/h (2 Bft)
18.04.2016 15:10 6,0 C 6,2 C 86 % 1016,8 hPa 0,0 mm 8,3 km/h (2 Bft) NO 45 0 min 3,8 C 11,6 km/h (2 Bft)
18.04.2016 15:15 6,0 C 6,3 C 86 % 1016,8 hPa 0,0 mm 8,0 km/h (2 Bft) NO 45 0 min 3,8 C 10,1 km/h (2 Bft)
18.04.2016 15:20 6,0 C 6,4 C 86 % 1016,8 hPa 0,0 mm 6,9 km/h (2 Bft) N-NO 22 0 min 3,8 C 6,9 km/h (2 Bft)
18.04.2016 15:25 6,0 C 6,4 C 86 % 1016,8 hPa 0,0 mm 4,5 km/h (1 Bft) O-NO 67 0 min 3,8 C 3,0 km/h (1 Bft)
18.04.2016 15:30 6,0 C 6,4 C 86 % 1016,6 hPa 0,0 mm 4,8 km/h (1 Bft) S 180 0 min 3,8 C 3,3 km/h (1 Bft)
18.04.2016 15:35 6,0 C 6,3 C 86 % 1016,6 hPa 0,0 mm 5,1 km/h (1 Bft) O-NO 67 0 min 3,8 C 8,3 km/h (2 Bft)
18.04.2016 15:40 6,0 C 6,2 C 86 % 1016,6 hPa 0,0 mm 5,7 km/h (1 Bft) O-NO 67 0 min 3,8 C 4,2 km/h (1 Bft)
18.04.2016 15:45 6,0 C 5,9 C 86 % 1016,6 hPa 0,0 mm 8,0 km/h (2 Bft) O-NO 67 0 min 3,8 C 8,9 km/h (2 Bft)
18.04.2016 15:50 6,0 C 5,9 C 86 % 1016,6 hPa 0,0 mm 8,3 km/h (2 Bft) O-NO 67 0 min 3,8 C 7,7 km/h (2 Bft)
18.04.2016 15:55 6,0 C 6,0 C 86 % 1016,6 hPa 0,0 mm 6,6 km/h (2 Bft) NO 45 0 min 3,8 C 6,0 km/h (2 Bft)
18.04.2016 16:00 6,0 C 6,1 C 86 % 1016,6 hPa 0,0 mm 5,1 km/h (1 Bft) N-NO 22 0 min 3,8 C 6,6 km/h (2 Bft)
18.04.2016 16:05 6,0 C 6,1 C 86 % 1016,6 hPa 0,7 mm 4,5 km/h (1 Bft) S-SO 157 0 min 3,8 C 0,0 km/h (0 Bft)
18.04.2016 16:10 6,0 C 6,1 C 86 % 1016,5 hPa 0,0 mm 6,3 km/h (2 Bft) NW 315 0 min 3,8 C 7,2 km/h (2 Bft)
18.04.2016 16:15 6,0 C 5,9 C 86 % 1016,5 hPa 0,0 mm 8,0 km/h (2 Bft) NO 45 0 min 3,8 C 6,6 km/h (2 Bft)
18.04.2016 16:20 6,0 C 6,0 C 86 % 1016,5 hPa 0,0 mm 7,5 km/h (2 Bft) N-NO 22 0 min 3,8 C 8,9 km/h (2 Bft)
18.04.2016 16:25 6,3 C 6,3 C 86 % 1016,5 hPa 0,0 mm 4,8 km/h (1 Bft) N 360 0 min 4,1 C 0,0 km/h (0 Bft)
18.04.2016 16:27 6,3 C 6,3 C 86 % 1016,5 hPa 0,0 mm 4,8 km/h (1 Bft) N 360 0 min 4,1 C 0,0 km/h (0 Bft)
18.04.2016 16:30 6,3 C 6,3 C 86 % 1016,5 hPa 0,0 mm 5,1 km/h (1 Bft) NO 45 0 min 4,1 C 5,7 km/h (1 Bft)
18.04.2016 16:35 6,2 C 6,2 C 86 % 1016,5 hPa 0,0 mm 6,0 km/h (2 Bft) O 90 0 min 4,0 C 4,5 km/h (1 Bft)
18.04.2016 16:40 6,2 C 6,3 C 86 % 1016,5 hPa 0,7 mm 5,4 km/h (1 Bft) N-NO 22 0 min 4,0 C 0,0 km/h (0 Bft)
18.04.2016 16:45 6,3 C 6,3 C 86 % 1016,5 hPa 0,0 mm 5,7 km/h (1 Bft) O-NO 67 0 min 4,1 C 10,1 km/h (2 Bft)
18.04.2016 16:50 6,2 C 6,2 C 86 % 1016,6 hPa 0,0 mm 7,2 km/h (2 Bft) O-NO 67 0 min 4,0 C 8,3 km/h (2 Bft)
18.04.2016 16:55 6,4 C 6,5 C 86 % 1016,6 hPa 0,0 mm 6,6 km/h (2 Bft) N 360 0 min 4,2 C 3,9 km/h (1 Bft)
18.04.2016 17:00 6,4 C 6,6 C 86 % 1016,6 hPa 0,0 mm 4,5 km/h (1 Bft) NO 45 0 min 4,2 C 7,5 km/h (2 Bft)
18.04.2016 17:05 6,5 C 6,6 C 86 % 1016,6 hPa 0,0 mm 5,7 km/h (1 Bft) N-NO 22 0 min 4,3 C 7,2 km/h (2 Bft)
18.04.2016 17:10 6,5 C 6,5 C 86 % 1016,6 hPa 0,0 mm 6,3 km/h (2 Bft) O-NO 67 0 min 4,3 C 6,3 km/h (2 Bft)
18.04.2016 17:15 6,4 C 6,4 C 86 % 1016,6 hPa 0,0 mm 6,3 km/h (2 Bft) N-NO 22 0 min 4,2 C 18,2 km/h (3 Bft)
18.04.2016 17:20 6,4 C 6,3 C 86 % 1016,6 hPa 0,0 mm 7,2 km/h (2 Bft) O-NO 67 0 min 4,2 C 6,3 km/h (2 Bft)
18.04.2016 17:25 6,4 C 6,4 C 86 % 1016,6 hPa 0,0 mm 7,2 km/h (2 Bft) NO 45 0 min 4,2 C 4,2 km/h (1 Bft)
18.04.2016 17:30 6,4 C 6,4 C 86 % 1016,7 hPa 0,0 mm 6,6 km/h (2 Bft) NO 45 0 min 4,2 C 8,6 km/h (2 Bft)
18.04.2016 17:35 6,4 C 6,2 C 86 % 1016,7 hPa 0,0 mm 7,5 km/h (2 Bft) O 90 0 min 4,2 C 3,3 km/h (1 Bft)
18.04.2016 17:40 6,4 C 6,2 C 88 % 1016,7 hPa 0,0 mm 6,6 km/h (2 Bft) O-NO 67 0 min 4,6 C 11,9 km/h (2 Bft)
18.04.2016 17:45 6,3 C 6,2 C 86 % 1016,7 hPa 0,0 mm 6,3 km/h (2 Bft) NO 45 0 min 4,1 C 11,3 km/h (2 Bft)
18.04.2016 17:50 6,3 C 6,2 C 86 % 1017,0 hPa 0,0 mm 7,2 km/h (2 Bft) O-NO 67 0 min 4,1 C 9,2 km/h (2 Bft)
18.04.2016 17:55 6,3 C 6,1 C 86 % 1017,0 hPa 0,0 mm 7,7 km/h (2 Bft) O-NO 67 0 min 4,1 C 8,9 km/h (2 Bft)
18.04.2016 18:00 6,3 C 6,0 C 86 % 1017,0 hPa 0,0 mm 8,6 km/h (2 Bft) O-NO 67 0 min 4,1 C 11,9 km/h (2 Bft)
18.04.2016 18:05 6,3 C 6,0 C 88 % 1017,0 hPa 0,7 mm 7,5 km/h (2 Bft) N-NO 22 0 min 4,5 C 14,3 km/h (3 Bft)
18.04.2016 18:10 6,3 C 6,1 C 88 % 1016,9 hPa 0,0 mm 6,9 km/h (2 Bft) O-NO 67 0 min 4,5 C 8,3 km/h (2 Bft)
18.04.2016 18:15 6,2 C 5,8 C 88 % 1016,9 hPa 0,0 mm 9,8 km/h (2 Bft) N-NO 22 0 min 4,4 C 30,1 km/h (5 Bft)
18.04.2016 18:20 6,2 C 5,6 C 88 % 1016,9 hPa 0,0 mm 12,2 km/h (2 Bft) O-NO 67 0 min 4,4 C 12,8 km/h (3 Bft)
18.04.2016 18:25 6,2 C 5,6 C 88 % 1016,9 hPa 0,0 mm 12,2 km/h (2 Bft) SO 135 0 min 4,4 C 14,0 km/h (3 Bft)
18.04.2016 18:30 6,2 C 5,8 C 88 % 1017,1 hPa 0,0 mm 9,2 km/h (2 Bft) O-NO 67 0 min 4,4 C 8,0 km/h (2 Bft)
18.04.2016 18:35 6,2 C 6,0 C 88 % 1017,1 hPa 0,0 mm 6,6 km/h (2 Bft) N-NO 22 0 min 4,4 C 8,9 km/h (2 Bft)
18.04.2016 18:40 6,2 C 6,0 C 88 % 1017,1 hPa 0,0 mm 5,1 km/h (1 Bft) NW 315 0 min 4,4 C 0,0 km/h (0 Bft)
18.04.2016 18:45 6,1 C 6,0 C 88 % 1017,1 hPa 0,0 mm 3,9 km/h (1 Bft) N-NW 337 0 min 4,3 C 5,4 km/h (1 Bft)
18.04.2016 18:50 6,1 C 6,0 C 88 % 1017,6 hPa 0,0 mm 4,5 km/h (1 Bft) N-NO 22 0 min 4,3 C 12,8 km/h (3 Bft)
18.04.2016 18:55 6,0 C 5,8 C 88 % 1017,6 hPa 0,0 mm 6,3 km/h (2 Bft) NO 45 0 min 4,2 C 3,3 km/h (1 Bft)
18.04.2016 19:00 6,0 C 5,9 C 88 % 1017,6 hPa 0,0 mm 6,0 km/h (2 Bft) NW 315 0 min 4,2 C 6,3 km/h (2 Bft)
18.04.2016 19:05 5,9 C 5,8 C 89 % 1017,6 hPa 0,7 mm 4,8 km/h (1 Bft) N-NW 337 0 min 4,2 C 3,3 km/h (1 Bft)
18.04.2016 19:10 5,9 C 5,8 C 89 % 1017,9 hPa 0,0 mm 5,4 km/h (1 Bft) W-NW 292 0 min 4,2 C 7,2 km/h (2 Bft)
18.04.2016 19:15 5,8 C 5,6 C 89 % 1017,9 hPa 0,0 mm 6,9 km/h (2 Bft) NW 315 0 min 4,1 C 7,7 km/h (2 Bft)
18.04.2016 19:20 5,7 C 5,4 C 89 % 1017,9 hPa 0,7 mm 7,5 km/h (2 Bft) W 270 0 min 4,0 C 5,1 km/h (1 Bft)
18.04.2016 19:25 5,7 C 5,6 C 89 % 1017,9 hPa 0,0 mm 3,3 km/h (1 Bft) W 270 0 min 4,0 C 0,0 km/h (0 Bft)
18.04.2016 19:28 5,7 C 5,6 C 89 % 1017,9 hPa 0,0 mm 3,3 km/h (1 Bft) W 270 0 min 4,0 C 0,0 km/h (0 Bft)
18.04.2016 19:30 5,6 C 5,5 C 89 % 1018,1 hPa 0,7 mm 2,1 km/h (1 Bft) W-NW 292 0 min 3,9 C 6,0 km/h (2 Bft)
18.04.2016 19:35 5,6 C 5,5 C 89 % 1018,1 hPa 0,0 mm 3,6 km/h (1 Bft) W 270 0 min 3,9 C 3,3 km/h (1 Bft)
18.04.2016 19:40 5,6 C 5,5 C 89 % 1018,1 hPa 0,7 mm 5,1 km/h (1 Bft) NW 315 0 min 3,9 C 7,7 km/h (2 Bft)
18.04.2016 19:45 5,6 C 5,5 C 89 % 1018,1 hPa 0,0 mm 3,6 km/h (1 Bft) W 270 0 min 3,9 C 7,2 km/h (2 Bft)
18.04.2016 19:50 5,5 C 5,4 C 89 % 1018,2 hPa 0,0 mm 5,1 km/h (1 Bft) W-NW 292 0 min 3,8 C 12,5 km/h (3 Bft)
18.04.2016 19:55 5,5 C 5,1 C 89 % 1018,2 hPa 0,7 mm 8,9 km/h (2 Bft) NW 315 0 min 3,8 C 13,7 km/h (3 Bft)
18.04.2016 20:00 5,5 C 5,2 C 90 % 1018,2 hPa 0,0 mm 8,3 km/h (2 Bft) N 360 0 min 4,0 C 6,0 km/h (2 Bft)
18.04.2016 20:05 5,5 C 5,3 C 90 % 1018,2 hPa 0,0 mm 7,2 km/h (2 Bft) N 360 0 min 4,0 C 4,8 km/h (1 Bft)
18.04.2016 20:10 5,4 C 5,2 C 90 % 1018,8 hPa 0,7 mm 7,2 km/h (2 Bft) W 270 0 min 3,9 C 6,3 km/h (2 Bft)
18.04.2016 20:15 5,3 C 5,1 C 90 % 1018,8 hPa 0,0 mm 7,2 km/h (2 Bft) NW 315 0 min 3,8 C 5,7 km/h (1 Bft)
18.04.2016 20:20 5,3 C 5,0 C 90 % 1018,8 hPa 0,0 mm 7,7 km/h (2 Bft) W-NW 292 0 min 3,8 C 12,8 km/h (3 Bft)
18.04.2016 20:25 5,2 C 5,0 C 90 % 1018,8 hPa 0,7 mm 6,6 km/h (2 Bft) W 270 0 min 3,7 C 5,4 km/h (1 Bft)
18.04.2016 20:30 5,2 C 5,0 C 90 % 1019,1 hPa 0,0 mm 6,0 km/h (2 Bft) W 270 0 min 3,7 C 3,3 km/h (1 Bft)
18.04.2016 20:35 5,1 C 5,0 C 90 % 1019,1 hPa 0,0 mm 5,1 km/h (1 Bft) W-SW 247 0 min 3,6 C 5,1 km/h (1 Bft)
18.04.2016 20:40 5,1 C 5,0 C 90 % 1019,1 hPa 0,7 mm 3,0 km/h (1 Bft) NW 315 0 min 3,6 C 0,0 km/h (0 Bft)
18.04.2016 20:45 5,0 C 4,9 C 90 % 1019,1 hPa 0,0 mm 1,2 km/h (1 Bft) W-SW 247 0 min 3,5 C 3,3 km/h (1 Bft)
18.04.2016 20:50 5,0 C 4,9 C 90 % 1019,7 hPa 0,0 mm 1,5 km/h (1 Bft) W-SW 247 0 min 3,5 C 6,6 km/h (2 Bft)
18.04.2016 20:55 5,0 C 4,9 C 90 % 1019,7 hPa 0,0 mm 3,3 km/h (1 Bft) W-SW 247 0 min 3,5 C 0,0 km/h (0 Bft)
18.04.2016 21:00 5,0 C 4,9 C 90 % 1019,7 hPa 0,0 mm 5,1 km/h (1 Bft) W 270 0 min 3,5 C 9,8 km/h (2 Bft)
18.04.2016 21:05 4,9 C 4,8 C 90 % 1019,7 hPa 0,0 mm 4,5 km/h (1 Bft) W 270 0 min 3,4 C 4,8 km/h (1 Bft)
18.04.2016 21:10 4,9 C 4,7 C 90 % 1020,1 hPa 0,0 mm 3,9 km/h (1 Bft) W-SW 247 0 min 3,4 C 8,9 km/h (2 Bft)
18.04.2016 21:15 4,9 C 4,7 C 90 % 1020,1 hPa 0,7 mm 3,0 km/h (1 Bft) SW 225 0 min 3,4 C 5,4 km/h (1 Bft)
18.04.2016 21:20 4,8 C 4,6 C 90 % 1020,1 hPa 0,0 mm 3,9 km/h (1 Bft) SW 225 0 min 3,3 C 8,9 km/h (2 Bft)
18.04.2016 21:25 4,8 C 4,6 C 90 % 1020,1 hPa 0,0 mm 5,1 km/h (1 Bft) S-SO 157 0 min 3,3 C 3,6 km/h (1 Bft)
18.04.2016 21:30 4,8 C 4,6 C 90 % 1020,1 hPa 0,0 mm 5,4 km/h (1 Bft) S 180 0 min 3,3 C 6,6 km/h (2 Bft)
18.04.2016 21:35 4,8 C 4,6 C 90 % 1020,1 hPa 0,0 mm 5,1 km/h (1 Bft) S 180 0 min 3,3 C 3,6 km/h (1 Bft)
18.04.2016 21:40 4,7 C 4,6 C 90 % 1020,1 hPa 0,0 mm 4,5 km/h (1 Bft) S-SW 202 0 min 3,2 C 4,8 km/h (1 Bft)
18.04.2016 21:45 4,7 C 4,6 C 90 % 1020,1 hPa 0,0 mm 2,4 km/h (1 Bft) S-SW 202 0 min 3,2 C 0,0 km/h (0 Bft)
18.04.2016 21:50 4,7 C 4,6 C 90 % 1020,1 hPa 0,7 mm 1,5 km/h (1 Bft) S 180 0 min 3,2 C 0,0 km/h (0 Bft)
18.04.2016 21:55 4,7 C 4,6 C 91 % 1020,1 hPa 0,0 mm 1,5 km/h (1 Bft) S-SO 157 0 min 3,4 C 4,2 km/h (1 Bft)
18.04.2016 22:00 4,7 C 4,6 C 91 % 1020,1 hPa 0,0 mm 2,7 km/h (1 Bft) S 180 0 min 3,4 C 3,6 km/h (1 Bft)
18.04.2016 22:05 4,7 C 4,6 C 91 % 1020,1 hPa 0,0 mm 3,0 km/h (1 Bft) SO 135 0 min 3,4 C 0,0 km/h (0 Bft)
18.04.2016 22:10 4,7 C 4,6 C 91 % 1020,4 hPa 0,0 mm 1,8 km/h (1 Bft) O-SO 112 0 min 3,4 C 0,0 km/h (0 Bft)
18.04.2016 22:15 4,7 C 4,6 C 91 % 1020,4 hPa 0,0 mm 0,0 km/h (0 Bft) S 180 0 min 3,4 C 0,0 km/h (0 Bft)
18.04.2016 22:20 4,7 C 4,6 C 91 % 1020,4 hPa 0,0 mm 0,3 km/h (0 Bft) SW 225 0 min 3,4 C 8,0 km/h (2 Bft)
18.04.2016 22:25 4,6 C 4,5 C 91 % 1020,4 hPa 0,0 mm 1,8 km/h (1 Bft) S 180 0 min 3,3 C 4,8 km/h (1 Bft)
18.04.2016 22:28 4,6 C 4,4 C 91 % 1020,5 hPa 0,0 mm 2,4 km/h (1 Bft) S-SW 202 0 min 3,3 C 3,9 km/h (1 Bft)
18.04.2016 22:29 4,6 C 4,4 C 91 % 1020,5 hPa 0,0 mm 2,4 km/h (1 Bft) S-SW 202 0 min 3,3 C 3,9 km/h (1 Bft)
18.04.2016 22:30 4,6 C 4,4 C 91 % 1020,5 hPa 0,0 mm 2,4 km/h (1 Bft) S-SW 202 0 min 3,3 C 3,9 km/h (1 Bft)
18.04.2016 22:35 4,5 C 4,3 C 91 % 1020,5 hPa 0,0 mm 1,8 km/h (1 Bft) S 180 0 min 3,2 C 4,8 km/h (1 Bft)
18.04.2016 22:40 4,5 C 4,3 C 91 % 1020,5 hPa 0,0 mm 0,6 km/h (0 Bft) S-SO 157 0 min 3,2 C 0,0 km/h (0 Bft)
18.04.2016 22:45 4,5 C 4,3 C 91 % 1020,5 hPa 0,7 mm 1,5 km/h (1 Bft) O-SO 112 0 min 3,2 C 8,9 km/h (2 Bft)
18.04.2016 22:50 4,4 C 4,3 C 91 % 1020,7 hPa 0,0 mm 3,6 km/h (1 Bft) W 270 0 min 3,1 C 9,8 km/h (2 Bft)
18.04.2016 22:55 4,3 C 4,0 C 91 % 1020,7 hPa 0,0 mm 6,6 km/h (2 Bft) W 270 0 min 3,0 C 0,0 km/h (0 Bft)
18.04.2016 23:00 4,3 C 4,1 C 91 % 1020,7 hPa 0,0 mm 5,1 km/h (1 Bft) W-SW 247 0 min 3,0 C 4,2 km/h (1 Bft)
18.04.2016 23:05 4,0 C 3,9 C 91 % 1020,7 hPa 0,0 mm 4,5 km/h (1 Bft) W-SW 247 0 min 2,7 C 6,3 km/h (2 Bft)
18.04.2016 23:10 3,9 C 3,8 C 88 % 1021,1 hPa 0,0 mm 5,4 km/h (1 Bft) W-SW 247 0 min 2,1 C 6,6 km/h (2 Bft)
18.04.2016 23:15 3,8 C 3,5 C 91 % 1021,1 hPa 0,0 mm 6,0 km/h (2 Bft) W 270 0 min 2,5 C 6,9 km/h (2 Bft)
18.04.2016 23:20 3,8 C 3,6 C 90 % 1021,1 hPa 0,0 mm 5,1 km/h (1 Bft) W-NW 292 0 min 2,3 C 5,4 km/h (1 Bft)
18.04.2016 23:25 3,7 C 3,6 C 88 % 1021,1 hPa 0,0 mm 3,6 km/h (1 Bft) SW 225 0 min 1,9 C 8,3 km/h (2 Bft)
18.04.2016 23:30 3,7 C 3,6 C 88 % 1021,4 hPa 0,0 mm 3,6 km/h (1 Bft) SW 225 0 min 1,9 C 5,1 km/h (1 Bft)
18.04.2016 23:35 3,7 C 3,5 C 90 % 1021,4 hPa 0,0 mm 3,3 km/h (1 Bft) W-SW 247 0 min 2,2 C 7,2 km/h (2 Bft)
18.04.2016 23:40 3,6 C 3,4 C 90 % 1021,4 hPa 0,0 mm 4,5 km/h (1 Bft) W-SW 247 0 min 2,1 C 10,7 km/h (2 Bft)
18.04.2016 23:45 3,6 C 3,3 C 90 % 1021,4 hPa 0,0 mm 5,4 km/h (1 Bft) W-SW 247 0 min 2,1 C 11,9 km/h (2 Bft)
18.04.2016 23:50 3,6 C 3,3 C 90 % 1021,4 hPa 0,0 mm 5,7 km/h (1 Bft) W-SW 247 0 min 2,1 C 6,9 km/h (2 Bft)
18.04.2016 23:55 3,5 C 3,2 C 90 % 1021,4 hPa 0,0 mm 5,7 km/h (1 Bft) W-SW 247 0 min 2,0 C 5,7 km/h (1 Bft)
_ Min-Zeit 23:55 23:55 12:10 04:05 - 22:15 - - - 23:30 22:55
Minimum _ 3,5 C 3,2 C 85 % 1014,8 hPa - 0,0 km/h (0 Bft) - - - 1,9 C 0,0 km/h (0 Bft)
_ Max-Zeit 17:10 11:05 07:00 23:55 22:45 18:25 - - 23:55 17:40 18:15
Maximum _ 6,5 C 7,6 C 92 % 1021,4 hPa 0,7 mm 12,2 km/h
SO (2 Bft)
- - 0 min 4,6 C 30,1 km/h
N-NO (5 Bft)
Durchschnitt _ 5,1 C 5,1 C 89 % 1016,9 hPa #13,1 mm 4,2 km/h (1 Bft) NO - #0 min. 3,3 C 5,4 km/h (1 Bft)